Flag for Canada Weather past 2 weeks in Calgary, Alberta, Canada

Now
59 °F

Partly sunny.


Feels Like: 59 °F
Forecast: 44 / 65 °F
Wind: 2 mph from North

Location: Calgary International

Current Time: Aug 30, 2014 at 1:27:43 PM

Latest Report: Aug 30, 2014 at 12:00 PM


Visibility: 40 mi

Pressure: 29.78 "Hg

Humidity: 51%

Dew point: 41 °F

Location of CalgaryLocation

Historic Weather in Calgary — Graph

°F

Calgary temperature yesterday

Maximum temperature yesterday: 70 °F (at 4:00 PM)
Minimum temperature yesterday: 41 °F (at 7:00 AM)
Average temperature yesterday: 54 °F

Past Weeks' High & Low Weather Summary

 TemperatureHumidityPressure
High82 °F (Aug 18, 5:00 PM)100% (Aug 24, 4:00 AM)30.41 "Hg (Aug 24, 4:00 AM)
Low41 °F (Aug 29, 7:00 AM)17% (Aug 27, 4:00 PM)29.69 "Hg (Aug 29, 8:00 PM)
Average58 °F71%30.03 "Hg
* Reported Aug 15 11:00 AM — Aug 30 11:00 AM, Calgary, Weather by CustomWeather, © 2014

Note: Actual official high and low records may vary slightly from our data, if they occured in-between our weather recording intervals... More about our weather records

Advertising

Calgary weather history for previous 24 hours

 ConditionsComfort  
Time TempWeatherWind HumidityBarometerVisibility
11:00 AM
Aug 30
57 °FPartly sunny.2 mph59%29.80 "Hg30 mi
10:00 AM55 °FPartly sunny.No wind63%29.80 "Hg30 mi
9:00 AM54 °FBroken clouds.5 mph67%29.80 "Hg30 mi
8:00 AM48 °FPartly sunny.3 mph82%29.79 "Hg40 mi
7:00 AM46 °FPartly cloudy.7 mph87%29.78 "Hg30 mi
6:00 AM46 °FPassing clouds.8 mph87%29.76 "Hg15 mi
5:00 AM48 °FClear.10 mph87%29.75 "Hg15 mi
4:00 AM50 °FClear.16 mph82%29.74 "Hg15 mi
3:00 AM54 °FPassing clouds.21 mph63%29.74 "Hg15 mi
2:00 AM55 °FPassing clouds.9 mph59%29.71 "Hg15 mi
1:00 AM63 °FPartly cloudy.14 mph42%29.70 "Hg15 mi
12:00 AM57 °FPassing clouds.5 mph67%29.71 "Hg15 mi
11:00 PM
Aug 29
59 °FPassing clouds.2 mph63%29.72 "Hg15 mi
10:00 PM59 °FPassing clouds.8 mph68%29.73 "Hg15 mi
9:00 PM61 °FBroken clouds.16 mph63%29.72 "Hg15 mi
8:00 PM66 °FPartly sunny.12 mph52%29.69 "Hg20 mi
7:00 PM70 °FBroken clouds.10 mph46%29.72 "Hg30 mi
6:00 PM70 °FMostly cloudy.10 mph43%29.75 "Hg30 mi
5:00 PM70 °FPartly sunny.12 mph38%29.76 "Hg30 mi
4:00 PM70 °FMore clouds than sun.7 mph46%29.78 "Hg30 mi
3:00 PM66 °FMore clouds than sun.10 mph64%29.82 "Hg30 mi
1:00 PM59 °FOvercast.12 mph72%29.90 "Hg30 mi
Weather by CustomWeather, © 2014

See weather overviewHow to use our weather pages